Time,TemperatureF,DewpointF,PressureIn,WindDirection,WindDirectionDegrees,WindSpeedMPH,WindSpeedGustMPH,Humidity,HourlyPrecipIn,Conditions,Clouds,dailyrainin,SoftwareType,DateUTC
2013-02-08 00:11:00,35.0,34.0,30.09,North,0,0.0,0.0,98,30.40,,,-99.99,,2013-02-08 08:11:00,
2013-02-08 00:22:00,35.0,34.0,30.09,North,0,0.0,0.0,98,30.40,,,-99.99,,2013-02-08 08:22:00,
2013-02-08 00:32:00,35.0,34.0,30.09,North,0,0.0,0.0,98,30.40,,,-99.99,,2013-02-08 08:32:00,
2013-02-08 00:42:00,35.0,34.0,30.09,North,0,0.0,0.0,98,30.40,,,-99.99,,2013-02-08 08:42:00,
2013-02-08 00:52:00,34.0,34.0,30.09,North,0,0.0,0.0,98,30.40,,,-99.99,,2013-02-08 08:52:00,
2013-02-08 01:02:00,34.0,34.0,30.09,North,0,0.0,0.0,98,30.40,,,-99.99,,2013-02-08 09:02:00,
2013-02-08 01:11:00,34.0,34.0,30.09,North,0,0.0,0.0,98,30.40,,,-99.99,,2013-02-08 09:11:00,
2013-02-08 01:21:00,34.0,34.0,30.10,North,0,0.0,0.0,98,30.40,,,-99.99,,2013-02-08 09:21:00,
2013-02-08 01:31:00,34.0,34.0,30.10,North,0,0.0,0.0,98,30.40,,,-99.99,,2013-02-08 09:31:00,
2013-02-08 01:42:00,34.0,34.0,30.10,North,0,0.0,0.0,98,30.40,,,-99.99,,2013-02-08 09:42:00,
2013-02-08 01:52:00,34.0,34.0,30.10,North,0,0.0,0.0,98,30.40,,,-99.99,,2013-02-08 09:52:00,
2013-02-08 02:01:00,35.0,34.0,30.11,North,0,0.0,0.0,98,30.40,,,-99.99,,2013-02-08 10:01:00,
2013-02-08 02:11:00,35.0,34.0,30.11,North,0,0.0,0.0,98,30.40,,,-99.99,,2013-02-08 10:11:00,
2013-02-08 02:22:00,35.0,34.0,30.11,North,0,0.0,0.0,98,30.40,,,-99.99,,2013-02-08 10:22:00,
2013-02-08 02:31:00,35.0,34.0,30.11,North,0,0.0,0.0,98,30.40,,,-99.99,,2013-02-08 10:31:00,
2013-02-08 03:32:00,34.0,34.0,30.12,North,0,0.0,0.0,98,30.40,,,-99.99,,2013-02-08 11:32:00,
2013-02-08 03:41:00,33.0,32.0,30.12,North,0,0.0,0.0,98,30.40,,,-99.99,,2013-02-08 11:41:00,
2013-02-08 03:42:00,34.0,34.0,30.12,North,0,0.0,0.0,98,30.40,,,-99.99,,2013-02-08 11:42:00,
2013-02-08 03:52:00,34.0,34.0,30.12,North,0,0.0,0.0,98,30.40,,,-99.99,,2013-02-08 11:52:00,
2013-02-08 04:01:00,33.0,32.0,30.12,North,0,0.0,0.0,98,30.40,,,-99.99,,2013-02-08 12:01:00,
2013-02-08 04:11:00,33.0,32.0,30.12,North,0,0.0,0.0,98,30.40,,,-99.99,,2013-02-08 12:11:00,
2013-02-08 04:22:00,33.0,32.0,30.12,North,0,0.0,0.0,98,30.40,,,-99.99,,2013-02-08 12:22:00,
2013-02-08 04:32:00,33.0,32.0,30.12,North,0,0.0,0.0,98,30.40,,,-99.99,,2013-02-08 12:32:00,
2013-02-08 04:52:00,33.0,32.0,30.13,North,0,0.0,0.0,98,30.40,,,-99.99,,2013-02-08 12:52:00,
2013-02-08 05:01:00,33.0,33.0,30.13,North,0,0.0,0.0,99,30.40,,,-99.99,,2013-02-08 13:01:00,
2013-02-08 05:11:00,33.0,33.0,30.13,North,0,0.0,0.0,99,30.40,,,-99.99,,2013-02-08 13:11:00,
2013-02-08 05:21:00,33.0,33.0,30.14,North,0,0.0,0.0,99,30.40,,,-99.99,,2013-02-08 13:21:00,
2013-02-08 05:32:00,32.0,32.0,30.14,North,0,0.0,0.0,98,30.40,,,-99.99,,2013-02-08 13:32:00,
2013-02-08 05:42:00,32.0,32.0,30.14,North,0,0.0,0.0,98,30.40,,,-99.99,,2013-02-08 13:42:00,
2013-02-08 05:52:00,32.0,32.0,30.14,North,0,0.0,0.0,98,30.40,,,-99.99,,2013-02-08 13:52:00,
2013-02-08 06:01:00,32.0,32.0,30.15,North,0,0.0,0.0,98,30.40,,,-99.99,,2013-02-08 14:01:00,
2013-02-08 06:11:00,32.0,32.0,30.15,North,0,0.0,0.0,98,30.40,,,-99.99,,2013-02-08 14:11:00,
2013-02-08 06:21:00,32.0,32.0,30.15,North,0,0.0,0.0,98,30.40,,,-99.99,,2013-02-08 14:21:00,
2013-02-08 06:32:00,32.0,32.0,30.16,North,0,0.0,0.0,99,30.40,,,-99.99,,2013-02-08 14:32:00,
2013-02-08 06:41:00,32.0,32.0,30.16,North,0,0.0,0.0,99,30.40,,,-99.99,,2013-02-08 14:41:00,
2013-02-08 06:52:00,32.0,32.0,30.16,North,0,0.0,0.0,99,30.40,,,-99.99,,2013-02-08 14:52:00,
2013-02-08 07:01:00,32.0,32.0,30.16,North,0,0.0,0.0,99,30.40,,,-99.99,,2013-02-08 15:01:00,
2013-02-08 07:11:00,32.0,32.0,30.16,North,0,0.0,0.0,99,30.40,,,-99.99,,2013-02-08 15:11:00,
2013-02-08 07:21:00,31.0,31.0,30.17,North,0,0.0,0.0,98,30.40,,,-99.99,,2013-02-08 15:21:00,
2013-02-08 07:32:00,31.0,31.0,30.17,North,0,0.0,0.0,98,30.40,,,-99.99,,2013-02-08 15:32:00,
2013-02-08 07:42:00,31.0,31.0,30.17,North,0,0.0,0.0,98,30.40,,,-99.99,,2013-02-08 15:42:00,
2013-02-08 07:52:00,31.0,31.0,30.17,North,0,0.0,0.0,98,30.40,,,-99.99,,2013-02-08 15:52:00,
2013-02-08 08:01:00,32.0,32.0,30.18,North,0,0.0,0.0,99,30.40,,,-99.99,,2013-02-08 16:01:00,
2013-02-08 08:11:00,32.0,32.0,30.18,North,0,0.0,0.0,99,30.40,,,-99.99,,2013-02-08 16:11:00,
2013-02-08 08:21:00,32.0,32.0,30.18,North,0,0.0,0.0,99,30.40,,,-99.99,,2013-02-08 16:21:00,
2013-02-08 08:32:00,32.0,32.0,30.18,North,0,0.0,0.0,99,30.40,,,-99.99,,2013-02-08 16:32:00,
2013-02-08 09:01:00,32.0,32.0,30.19,North,0,0.0,0.0,98,30.40,,,-99.99,,2013-02-08 17:01:00,
2013-02-08 09:23:00,32.0,32.0,30.19,North,0,0.0,0.0,98,30.40,,,-99.99,,2013-02-08 17:23:00,
2013-02-08 09:33:00,32.0,32.0,30.19,North,0,0.0,0.0,98,30.40,,,-99.99,,2013-02-08 17:33:00,
2013-02-08 09:42:00,32.0,32.0,30.19,North,0,0.0,0.0,98,30.40,,,-99.99,,2013-02-08 17:42:00,
2013-02-08 09:52:00,32.0,32.0,30.19,North,0,0.0,0.0,98,30.40,,,-99.99,,2013-02-08 17:52:00,
2013-02-08 10:25:00,35.0,34.0,30.19,North,0,0.0,0.0,98,30.40,,,-99.99,,2013-02-08 18:25:00,
2013-02-08 10:36:00,35.0,34.0,30.19,North,0,0.0,0.0,98,30.40,,,-99.99,,2013-02-08 18:36:00,
2013-02-08 10:44:00,35.0,34.0,30.19,North,0,0.0,0.0,98,30.40,,,-99.99,,2013-02-08 18:44:00,
2013-02-08 10:52:00,37.0,36.0,30.19,North,0,0.0,0.0,95,30.40,,,-99.99,,2013-02-08 18:52:00,
2013-02-08 11:01:00,37.0,35.0,30.19,North,0,0.0,0.0,94,30.40,,,-99.99,,2013-02-08 19:01:00,
2013-02-08 11:11:00,37.0,35.0,30.19,North,0,0.0,0.0,94,30.40,,,-99.99,,2013-02-08 19:11:00,
2013-02-08 11:21:00,37.0,35.0,30.19,North,0,0.0,0.0,94,30.40,,,-99.99,,2013-02-08 19:21:00,
2013-02-08 11:32:00,41.0,37.0,30.19,North,0,0.0,0.0,85,30.40,,,-99.99,,2013-02-08 19:32:00,
2013-02-08 11:42:00,41.0,37.0,30.19,North,0,0.0,0.0,85,30.40,,,-99.99,,2013-02-08 19:42:00,
2013-02-08 11:52:00,41.0,37.0,30.19,North,0,0.0,0.0,85,30.40,,,-99.99,,2013-02-08 19:52:00,
2013-02-08 12:01:00,41.0,37.0,30.19,North,0,0.0,0.0,85,30.40,,,-99.99,,2013-02-08 20:01:00,
2013-02-08 12:11:00,41.0,37.0,30.19,North,0,0.0,0.0,85,30.40,,,-99.99,,2013-02-08 20:11:00,
2013-02-08 12:22:00,42.0,36.0,30.16,SSW,198,1.0,6.0,79,30.40,,,-99.99,,2013-02-08 20:22:00,
2013-02-08 12:32:00,42.0,36.0,30.16,SSW,198,1.0,6.0,79,30.40,,,-99.99,,2013-02-08 20:32:00,
2013-02-08 12:42:00,42.0,36.0,30.16,SSW,198,1.0,6.0,79,30.40,,,-99.99,,2013-02-08 20:42:00,
2013-02-08 12:52:00,42.0,36.0,30.16,SSW,198,1.0,6.0,79,30.40,,,-99.99,,2013-02-08 20:52:00,
2013-02-08 13:01:00,44.0,37.0,30.15,SSW,195,2.0,5.0,76,30.40,,,-99.99,,2013-02-08 21:01:00,
2013-02-08 13:11:00,44.0,37.0,30.15,SSW,195,2.0,5.0,76,30.40,,,-99.99,,2013-02-08 21:11:00,
2013-02-08 13:21:00,44.0,37.0,30.15,SSW,195,2.0,5.0,76,30.40,,,-99.99,,2013-02-08 21:21:00,
2013-02-08 13:32:00,44.0,36.0,30.14,South,191,2.0,10.0,73,30.40,,,-99.99,,2013-02-08 21:32:00,
2013-02-08 13:42:00,44.0,36.0,30.14,South,191,2.0,10.0,73,30.40,,,-99.99,,2013-02-08 21:42:00,
2013-02-08 13:52:00,44.0,36.0,30.14,South,191,2.0,10.0,73,30.40,,,-99.99,,2013-02-08 21:52:00,
2013-02-08 14:01:00,44.0,36.0,30.14,South,191,2.0,10.0,73,30.40,,,-99.99,,2013-02-08 22:01:00,
2013-02-08 16:52:00,43.0,37.0,30.13,SSE,167,1.0,6.0,80,30.40,,,-99.99,,2013-02-09 00:52:00,
2013-02-08 17:01:00,43.0,37.0,30.13,SSE,167,1.0,6.0,80,30.40,,,-99.99,,2013-02-09 01:01:00,
2013-02-08 17:11:00,43.0,37.0,30.13,SSE,167,1.0,6.0,80,30.40,,,-99.99,,2013-02-09 01:11:00,
2013-02-08 17:21:00,42.0,37.0,30.13,North,0,0.0,0.0,81,30.40,,,-99.99,,2013-02-09 01:21:00,
2013-02-08 17:31:00,42.0,37.0,30.13,SW,229,0.0,3.0,81,30.40,,,-99.99,,2013-02-09 01:31:00,
2013-02-08 17:41:00,42.0,37.0,30.13,SW,229,0.0,3.0,81,30.40,,,-99.99,,2013-02-09 01:41:00,
2013-02-08 17:52:00,42.0,37.0,30.13,SW,229,0.0,3.0,81,30.40,,,-99.99,,2013-02-09 01:52:00,
2013-02-08 18:01:00,42.0,37.0,30.13,SW,229,0.0,3.0,81,30.40,,,-99.99,,2013-02-09 02:01:00,
2013-02-08 19:22:00,40.0,36.0,30.15,North,0,0.0,0.0,87,30.40,,,-99.99,,2013-02-09 03:22:00,
2013-02-08 19:31:00,40.0,36.0,30.14,North,0,0.0,0.0,85,30.40,,,-99.99,,2013-02-09 03:31:00,
2013-02-08 19:32:00,40.0,36.0,30.15,North,0,0.0,0.0,87,30.40,,,-99.99,,2013-02-09 03:32:00,
2013-02-08 19:42:00,40.0,36.0,30.15,North,0,0.0,0.0,87,30.40,,,-99.99,,2013-02-09 03:42:00,
2013-02-08 19:52:00,40.0,36.0,30.14,North,0,0.0,0.0,85,30.40,,,-99.99,,2013-02-09 03:52:00,
2013-02-08 20:01:00,40.0,36.0,30.14,North,0,0.0,0.0,85,30.40,,,-99.99,,2013-02-09 04:01:00,
2013-02-08 20:11:00,40.0,36.0,30.14,North,0,0.0,0.0,85,30.40,,,-99.99,,2013-02-09 04:11:00,
2013-02-08 20:22:00,40.0,36.0,30.14,North,0,0.0,0.0,85,30.40,,,-99.99,,2013-02-09 04:22:00,
2013-02-08 20:31:00,37.0,35.0,30.15,North,0,0.0,0.0,93,30.40,,,-99.99,,2013-02-09 04:31:00,
2013-02-08 20:52:00,37.0,35.0,30.15,North,0,0.0,0.0,93,30.40,,,-99.99,,2013-02-09 04:52:00,
2013-02-08 21:02:00,37.0,35.0,30.15,North,0,0.0,0.0,93,30.40,,,-99.99,,2013-02-09 05:02:00,
2013-02-08 21:12:00,37.0,35.0,30.15,North,0,0.0,0.0,93,30.40,,,-99.99,,2013-02-09 05:12:00,
2013-02-08 21:22:00,37.0,35.0,30.15,North,0,0.0,0.0,93,30.40,,,-99.99,,2013-02-09 05:22:00,
2013-02-08 22:32:00,36.0,35.0,30.16,North,0,0.0,0.0,96,30.40,,,-99.99,,2013-02-09 06:32:00,
2013-02-08 22:41:00,36.0,35.0,30.16,North,0,0.0,0.0,97,30.40,,,-99.99,,2013-02-09 06:41:00,
2013-02-08 22:42:00,36.0,35.0,30.16,North,0,0.0,0.0,96,30.40,,,-99.99,,2013-02-09 06:42:00,
2013-02-08 22:52:00,36.0,35.0,30.16,North,0,0.0,0.0,96,30.40,,,-99.99,,2013-02-09 06:52:00,
2013-02-08 23:01:00,36.0,35.0,30.16,North,0,0.0,0.0,97,30.40,,,-99.99,,2013-02-09 07:01:00,
2013-02-08 23:11:00,36.0,35.0,30.16,North,0,0.0,0.0,97,30.40,,,-99.99,,2013-02-09 07:11:00,
2013-02-08 23:21:00,36.0,35.0,30.16,North,0,0.0,0.0,97,30.40,,,-99.99,,2013-02-09 07:21:00,
2013-02-08 23:31:00,36.0,35.0,30.16,North,0,0.0,0.0,97,30.40,,,-99.99,,2013-02-09 07:31:00,